Time,TemperatureF,DewpointF,PressureIn,WindDirection,WindDirectionDegrees,WindSpeedMPH,WindSpeedGustMPH,Humidity,HourlyPrecipIn,Conditions,Clouds,dailyrainin,SoftwareType,DateUTC
2013-03-11 00:04:00,37.9,35.0,30.28,SE,127,5.0,7.0,88,0.00,,,0.00,weatherlink.com 1.10,2013-03-11 04:04:00,
2013-03-11 00:19:00,37.7,35.0,30.27,ESE,112,4.0,8.0,90,0.00,,,0.00,weatherlink.com 1.10,2013-03-11 04:19:00,
2013-03-11 00:34:00,37.5,35.0,30.27,East,92,1.0,5.0,90,0.00,,,0.00,weatherlink.com 1.10,2013-03-11 04:34:00,
2013-03-11 00:49:00,37.5,35.0,30.27,ESE,111,2.0,7.0,91,0.00,,,0.00,weatherlink.com 1.10,2013-03-11 04:49:00,
2013-03-11 01:04:00,37.4,35.0,30.27,SE,130,4.0,9.0,91,0.00,,,0.00,weatherlink.com 1.10,2013-03-11 05:04:00,
2013-03-11 01:19:00,37.4,35.0,30.27,SE,138,2.0,9.0,92,0.00,,,0.00,weatherlink.com 1.10,2013-03-11 05:19:00,
2013-03-11 01:34:00,37.7,36.0,30.26,South,175,2.0,8.0,92,0.00,,,0.00,weatherlink.com 1.10,2013-03-11 05:34:00,
2013-03-11 01:49:00,38.0,36.0,30.26,SE,129,5.0,12.0,92,0.00,,,0.00,weatherlink.com 1.10,2013-03-11 05:49:00,
2013-03-11 02:04:00,38.5,37.0,30.26,SSE,151,5.0,10.0,93,0.00,,,0.00,weatherlink.com 1.10,2013-03-11 06:04:00,
2013-03-11 02:20:00,39.0,38.0,30.25,South,175,3.0,8.0,94,0.00,,,0.00,weatherlink.com 1.10,2013-03-11 06:20:00,
2013-03-11 02:35:00,39.3,38.0,30.25,SE,140,6.0,13.0,94,0.00,,,0.00,weatherlink.com 1.10,2013-03-11 06:35:00,
2013-03-11 02:50:00,39.6,38.0,30.26,SSW,194,4.0,12.0,95,0.00,,,0.00,weatherlink.com 1.10,2013-03-11 06:50:00,
2013-03-11 03:05:00,39.7,38.0,30.25,South,169,5.0,8.0,95,0.00,,,0.00,weatherlink.com 1.10,2013-03-11 07:05:00,
2013-03-11 03:20:00,39.8,39.0,30.24,SSE,149,3.0,8.0,95,0.00,,,0.00,weatherlink.com 1.10,2013-03-11 07:20:00,
2013-03-11 03:35:00,40.2,39.0,30.24,SE,132,6.0,8.0,95,0.00,,,0.00,weatherlink.com 1.10,2013-03-11 07:35:00,
2013-03-11 03:50:00,40.5,39.0,30.22,South,173,2.0,10.0,95,0.00,,,0.00,weatherlink.com 1.10,2013-03-11 07:50:00,
2013-03-11 04:05:00,40.6,39.0,30.21,SE,128,5.0,12.0,95,0.00,,,0.00,weatherlink.com 1.10,2013-03-11 08:05:00,
2013-03-11 04:20:00,40.7,39.0,30.20,SE,134,6.0,13.0,95,0.00,,,0.00,weatherlink.com 1.10,2013-03-11 08:20:00,
2013-03-11 04:35:00,40.7,39.0,30.21,SSW,200,4.0,15.0,95,0.00,,,0.00,weatherlink.com 1.10,2013-03-11 08:35:00,
2013-03-11 04:50:00,40.6,39.0,30.21,South,188,3.0,11.0,95,0.00,,,0.00,weatherlink.com 1.10,2013-03-11 08:50:00,
2013-03-11 05:05:00,40.6,39.0,30.20,South,191,7.0,10.0,95,0.00,,,0.00,weatherlink.com 1.10,2013-03-11 09:05:00,
2013-03-11 05:20:00,40.5,39.0,30.21,South,170,3.0,10.0,95,0.00,,,0.00,weatherlink.com 1.10,2013-03-11 09:20:00,
2013-03-11 05:35:00,40.7,39.0,30.21,South,188,6.0,11.0,95,0.00,,,0.00,weatherlink.com 1.10,2013-03-11 09:35:00,
2013-03-11 05:50:00,40.8,40.0,30.20,SSE,148,6.0,9.0,95,0.00,,,0.00,weatherlink.com 1.10,2013-03-11 09:50:00,
2013-03-11 06:05:00,40.7,39.0,30.20,South,188,9.0,10.0,95,0.00,,,0.00,weatherlink.com 1.10,2013-03-11 10:05:00,
2013-03-11 06:20:00,40.6,39.0,30.20,South,175,6.0,10.0,95,0.00,,,0.00,weatherlink.com 1.10,2013-03-11 10:20:00,
2013-03-11 06:35:00,40.6,40.0,30.20,SSW,198,10.0,11.0,96,0.00,,,0.00,weatherlink.com 1.10,2013-03-11 10:35:00,
2013-03-11 06:50:00,40.7,40.0,30.20,SSE,165,11.0,14.0,96,0.00,,,0.00,weatherlink.com 1.10,2013-03-11 10:50:00,
2013-03-11 07:05:00,40.8,40.0,30.20,South,175,13.0,13.0,96,0.00,,,0.00,weatherlink.com 1.10,2013-03-11 11:05:00,
2013-03-11 07:20:00,40.8,40.0,30.20,SSE,164,9.0,13.0,95,0.00,,,0.00,weatherlink.com 1.10,2013-03-11 11:20:00,
2013-03-11 07:35:00,40.9,40.0,30.20,South,178,8.0,14.0,95,0.00,,,0.00,weatherlink.com 1.10,2013-03-11 11:35:00,
2013-03-11 07:50:00,41.0,40.0,30.20,South,171,6.0,11.0,95,0.00,,,0.00,weatherlink.com 1.10,2013-03-11 11:50:00,
2013-03-11 08:05:00,41.4,40.0,30.20,SSE,167,9.0,12.0,94,0.00,,,0.00,weatherlink.com 1.10,2013-03-11 12:05:00,
2013-03-11 08:20:00,41.6,40.0,30.21,South,181,8.0,11.0,94,0.00,,,0.00,weatherlink.com 1.10,2013-03-11 12:20:00,
2013-03-11 08:35:00,41.9,40.0,30.20,SE,145,5.0,13.0,94,0.00,,,0.00,weatherlink.com 1.10,2013-03-11 12:35:00,
2013-03-11 08:50:00,42.0,40.0,30.20,South,170,5.0,11.0,94,0.00,,,0.00,weatherlink.com 1.10,2013-03-11 12:50:00,
2013-03-11 09:05:00,42.1,41.0,30.20,SSE,159,3.0,11.0,95,0.00,,,0.00,weatherlink.com 1.10,2013-03-11 13:05:00,
2013-03-11 09:20:00,42.4,41.0,30.20,SSE,157,1.0,9.0,94,0.00,,,0.00,weatherlink.com 1.10,2013-03-11 13:20:00,
2013-03-11 09:35:00,42.8,41.0,30.20,ESE,111,8.0,10.0,94,0.00,,,0.00,weatherlink.com 1.10,2013-03-11 13:35:00,
2013-03-11 09:50:00,43.1,42.0,30.21,South,173,9.0,11.0,94,0.00,,,0.00,weatherlink.com 1.10,2013-03-11 13:50:00,
2013-03-11 10:05:00,43.7,42.0,30.20,SSW,204,5.0,9.0,93,0.00,,,0.00,weatherlink.com 1.10,2013-03-11 14:05:00,
2013-03-11 10:20:00,44.4,42.0,30.21,SSW,202,7.0,11.0,92,0.00,,,0.00,weatherlink.com 1.10,2013-03-11 14:20:00,
2013-03-11 10:35:00,45.7,43.0,30.20,SSE,159,8.0,10.0,89,0.00,,,0.00,weatherlink.com 1.10,2013-03-11 14:35:00,
2013-03-11 10:50:00,46.0,42.0,30.18,SSE,161,7.0,12.0,87,0.00,,,0.00,weatherlink.com 1.10,2013-03-11 14:50:00,
2013-03-11 11:05:00,46.4,42.0,30.19,South,178,10.0,10.0,85,0.00,,,0.00,weatherlink.com 1.10,2013-03-11 15:05:00,
2013-03-11 11:20:00,47.0,42.0,30.18,South,185,3.0,9.0,84,0.00,,,0.00,weatherlink.com 1.10,2013-03-11 15:20:00,
2013-03-11 11:35:00,47.7,43.0,30.18,South,184,6.0,13.0,82,0.00,,,0.00,weatherlink.com 1.10,2013-03-11 15:35:00,
2013-03-11 11:50:00,47.9,42.0,30.18,SE,128,5.0,13.0,80,0.00,,,0.00,weatherlink.com 1.10,2013-03-11 15:50:00,
2013-03-11 12:05:00,48.6,43.0,30.17,SE,139,7.0,11.0,81,0.00,,,0.00,weatherlink.com 1.10,2013-03-11 16:05:00,
2013-03-11 12:20:00,48.9,43.0,30.17,SSE,152,6.0,13.0,81,0.00,,,0.00,weatherlink.com 1.10,2013-03-11 16:20:00,
2013-03-11 12:35:00,49.1,43.0,30.17,SSE,165,12.0,15.0,79,0.00,,,0.00,weatherlink.com 1.10,2013-03-11 16:35:00,
2013-03-11 12:50:00,48.8,43.0,30.17,SE,145,4.0,12.0,79,0.00,,,0.00,weatherlink.com 1.10,2013-03-11 16:50:00,
2013-03-11 13:05:00,49.4,43.0,30.16,South,169,9.0,13.0,78,0.00,,,0.00,weatherlink.com 1.10,2013-03-11 17:05:00,
2013-03-11 13:20:00,50.0,42.0,30.15,SE,135,7.0,16.0,75,0.00,,,0.00,weatherlink.com 1.10,2013-03-11 17:20:00,
2013-03-11 13:35:00,50.9,43.0,30.14,SE,136,8.0,15.0,73,0.00,,,0.00,weatherlink.com 1.10,2013-03-11 17:35:00,
2013-03-11 13:51:00,51.8,43.0,30.13,South,171,13.0,16.0,71,0.00,,,0.00,weatherlink.com 1.10,2013-03-11 17:51:00,
2013-03-11 14:06:00,52.6,43.0,30.13,South,175,6.0,17.0,71,0.00,,,0.00,weatherlink.com 1.10,2013-03-11 18:06:00,
2013-03-11 14:21:00,52.9,44.0,30.12,South,175,9.0,15.0,72,0.00,,,0.00,weatherlink.com 1.10,2013-03-11 18:21:00,
2013-03-11 14:51:00,53.7,45.0,30.10,SSE,165,4.0,15.0,73,0.00,,,0.00,weatherlink.com 1.10,2013-03-11 18:51:00,
2013-03-11 15:06:00,53.7,46.0,30.09,SE,139,7.0,15.0,74,0.00,,,0.00,weatherlink.com 1.10,2013-03-11 19:06:00,
2013-03-11 15:36:00,54.6,46.0,30.09,SSW,192,10.0,15.0,73,0.00,,,0.00,weatherlink.com 1.10,2013-03-11 19:36:00,
2013-03-11 15:51:00,54.7,47.0,30.08,South,169,8.0,14.0,74,0.00,,,0.00,weatherlink.com 1.10,2013-03-11 19:51:00,
2013-03-11 16:06:00,55.0,46.0,30.08,SSE,148,6.0,15.0,73,0.00,,,0.00,weatherlink.com 1.10,2013-03-11 20:06:00,
2013-03-11 16:21:00,55.0,46.0,30.08,SE,136,8.0,11.0,73,0.00,,,0.00,weatherlink.com 1.10,2013-03-11 20:21:00,
2013-03-11 16:36:00,54.7,47.0,30.07,ESE,122,3.0,11.0,75,0.00,,,0.00,weatherlink.com 1.10,2013-03-11 20:36:00,
2013-03-11 16:50:00,55.0,46.0,30.07,South,171,6.0,15.0,73,0.00,,,0.00,weatherlink.com 1.10,2013-03-11 20:50:00,
2013-03-11 17:05:00,54.3,47.0,30.06,SE,126,6.0,13.0,75,0.00,,,0.00,weatherlink.com 1.10,2013-03-11 21:05:00,
2013-03-11 17:20:00,53.9,46.0,30.05,SE,143,5.0,11.0,75,0.00,,,0.00,weatherlink.com 1.10,2013-03-11 21:20:00,
2013-03-11 17:35:00,53.8,46.0,30.05,SE,144,4.0,11.0,75,0.00,,,0.00,weatherlink.com 1.10,2013-03-11 21:35:00,
2013-03-11 17:50:00,54.1,47.0,30.04,SSE,157,11.0,16.0,76,0.00,,,0.00,weatherlink.com 1.10,2013-03-11 21:50:00,
2013-03-11 18:05:00,53.9,47.0,30.03,ESE,118,9.0,15.0,77,0.00,,,0.00,weatherlink.com 1.10,2013-03-11 22:05:00,
2013-03-11 18:20:00,53.8,47.0,30.04,SSE,153,10.0,15.0,77,0.00,,,0.00,weatherlink.com 1.10,2013-03-11 22:20:00,
2013-03-11 18:35:00,53.7,47.0,30.04,SE,140,10.0,13.0,77,0.00,,,0.00,weatherlink.com 1.10,2013-03-11 22:35:00,
2013-03-11 18:51:00,53.6,47.0,30.05,SSE,151,11.0,12.0,79,0.00,,,0.00,weatherlink.com 1.10,2013-03-11 22:51:00,
2013-03-11 19:06:00,53.5,47.0,30.06,ESE,109,4.0,11.0,79,0.00,,,0.00,weatherlink.com 1.10,2013-03-11 23:06:00,
2013-03-11 19:21:00,53.3,48.0,30.05,ESE,120,3.0,7.0,81,0.00,,,0.00,weatherlink.com 1.10,2013-03-11 23:21:00,
2013-03-11 19:36:00,53.1,48.0,30.05,SE,132,3.0,10.0,82,0.00,,,0.00,weatherlink.com 1.10,2013-03-11 23:36:00,
2013-03-11 19:51:00,52.7,48.0,30.04,ESE,110,3.0,10.0,83,0.00,,,0.00,weatherlink.com 1.10,2013-03-11 23:51:00,
2013-03-11 20:06:00,52.3,48.0,30.02,SSE,163,5.0,9.0,84,0.00,,,0.00,weatherlink.com 1.10,2013-03-12 00:06:00,
2013-03-11 20:21:00,52.4,48.0,30.02,ESE,113,4.0,12.0,85,0.00,,,0.00,weatherlink.com 1.10,2013-03-12 00:21:00,
2013-03-11 20:36:00,52.2,48.0,30.02,SE,144,7.0,13.0,85,0.00,,,0.00,weatherlink.com 1.10,2013-03-12 00:36:00,
2013-03-11 20:51:00,52.3,48.0,30.03,SE,139,3.0,15.0,86,0.00,,,0.00,weatherlink.com 1.10,2013-03-12 00:51:00,
2013-03-11 21:06:00,52.5,48.0,30.05,SE,130,3.0,10.0,85,0.00,,,0.00,weatherlink.com 1.10,2013-03-12 01:06:00,
2013-03-11 21:36:00,52.3,48.0,30.03,SE,127,3.0,9.0,85,0.00,,,0.00,weatherlink.com 1.10,2013-03-12 01:36:00,
2013-03-11 21:51:00,52.0,48.0,30.02,East,88,6.0,9.0,86,0.00,,,0.00,weatherlink.com 1.10,2013-03-12 01:51:00,
2013-03-11 22:36:00,52.2,48.0,30.03,SSE,148,5.0,14.0,86,0.00,,,0.00,weatherlink.com 1.10,2013-03-12 02:36:00,
2013-03-11 22:51:00,52.4,48.0,30.02,SE,127,12.0,16.0,85,0.00,,,0.00,weatherlink.com 1.10,2013-03-12 02:51:00,
2013-03-11 23:06:00,52.3,48.0,30.02,SSE,151,12.0,14.0,85,0.00,,,0.00,weatherlink.com 1.10,2013-03-12 03:06:00,
2013-03-11 23:21:00,52.4,48.0,30.00,SSE,167,8.0,17.0,85,0.00,,,0.00,weatherlink.com 1.10,2013-03-12 03:21:00,
2013-03-11 23:36:00,52.4,48.0,30.00,SSE,156,14.0,18.0,85,0.00,,,0.00,weatherlink.com 1.10,2013-03-12 03:36:00,
2013-03-11 23:51:00,52.4,48.0,29.98,SE,131,19.0,20.0,85,0.00,,,0.00,weatherlink.com 1.10,2013-03-12 03:51:00,